Weather in Khorey-Ver

Russia / Nenets Autonomous Okrug     67°25′14″N   58°02′55″E
temp.,
°C
wind,
m/s
gust,
m/s
humid.,
%
clouds,
%
prec.,
mm/h
press.,
hPa
HPBL,
m
12 august, fri
fri1200:00+14sw51063100 0.1 1004412
03:00+13ssw71395100 1.3 1002523
06:00+13sw61197100 5.8 1000422
09:00+15nnw67765 7.2 1001743
12:00+18wnw56528 0.0 10011462
15:00+18wnw4548100 0.0 10011690
18:00+12nw4793100 1.1 1002243
21:00+10nw5119018 2.1 1003605
13 august, sat
sat1300:00+7w5119669 0.0 1003322
03:00+9w61293100 0.1 1004607
06:00+9w7119057 0.1 1004695
09:00+9wsw81393100 0.7 1004754
12:00+10w81391100 0.3 1004804
15:00+9w81389100 1.1 10041275
18:00+8w91593100 1.0 1004862
21:00+8wnw91491100 1.1 1006825
14 august, sun
sun1400:00+8nw91487100 0.1 1008957
03:00+7nw8148777 0.2 1009857
06:00+7wnw81282100 0.1 10111256
09:00+9nw91268100 0.2 10121457
12:00+9nw81262100 0.0 10141492
15:00+9nw71163100 0.0 10161475
18:00+8nw61070100 0.0 10171139
21:00+8wnw5107794 0.1 1017603
15 august, mon
mon1500:00+4w369449 0.0 101887
03:00+6w3785100 0.0 1018181
06:00+9wsw4771100 0.0 1018276
09:00+13wsw575288 0.0 10161278
12:00+14wsw5958100 0.2 10151613
15:00+12nw71085100 2.9 1014625
18:00+11nw59815 0.5 1015475
21:00+7wnw4109425 0.5 1017195
16 august, tue
tue1600:00+7wnw6139658 0.0 1017403
03:00+9nw71085100 0.1 1018734
06:00+9nw71081100 0.1 1020944
09:00+10nw7977100 0.1 10211057
12:00+10nw6879100 0.1 1022789
15:00+12nw685696 0.1 10231386
18:00+10nw566787 0.0 1024787
21:00+7wnw2380100 0.0 102463